TimeCST,TemperatureF,Dew PointF,Humidity,Sea Level PressureIn,VisibilityMPH,Wind Direction,Wind SpeedMPH,Gust SpeedMPH,PrecipitationIn,Events,Conditions,WindDirDegrees,DateUTC
12:15 AM,51.1,50.0,96,29.79,3.0,SSE,6.9,-,0.09,Rain,Rain,150,2013-01-11 06:15:00
12:47 AM,52.0,51.1,97,29.79,6.0,South,8.1,-,0.17,Rain,Light Rain,190,2013-01-11 06:47:00
12:54 AM,53.1,52.0,96,29.79,2.5,South,6.9,-,0.20,Rain,Heavy Rain,180,2013-01-11 06:54:00
12:59 AM,53.1,51.1,93,29.79,3.0,SSE,6.9,-,0.03,Rain,Light Rain,160,2013-01-11 06:59:00
1:14 AM,52.0,52.0,100,29.79,1.8,South,8.1,-,0.10,Rain,Heavy Rain,170,2013-01-11 07:14:00
1:20 AM,53.1,52.0,96,29.79,2.0,South,10.4,-,0.17,Rain,Rain,180,2013-01-11 07:20:00
1:30 AM,53.1,52.0,96,29.76,3.0,SE,5.8,-,0.22,Rain,Rain,140,2013-01-11 07:30:00
1:54 AM,53.1,52.0,96,29.70,2.0,East,13.8,-,0.25,Rain,Light Rain,90,2013-01-11 07:54:00
1:58 AM,53.1,52.0,96,29.69,2.0,East,10.4,-,0.00,,Overcast,90,2013-01-11 07:58:00
2:01 AM,53.1,52.0,96,29.70,4.0,East,10.4,-,0.00,,Overcast,100,2013-01-11 08:01:00
2:11 AM,53.1,52.0,96,29.69,10.0,East,10.4,-,0.00,,Mostly Cloudy,100,2013-01-11 08:11:00
2:27 AM,52.0,51.1,97,29.71,10.0,SSE,13.8,-,0.00,,Scattered Clouds,160,2013-01-11 08:27:00
2:40 AM,52.0,51.1,97,29.74,10.0,South,11.5,-,0.00,,Mostly Cloudy,180,2013-01-11 08:40:00
2:47 AM,52.0,51.1,97,29.74,10.0,South,10.4,-,0.00,,Mostly Cloudy,180,2013-01-11 08:47:00
2:54 AM,52.0,51.1,97,29.75,10.0,South,11.5,-,0.00,,Mostly Cloudy,170,2013-01-11 08:54:00
3:13 AM,52.0,51.1,97,29.72,6.0,SSE,10.4,-,N/A,,Overcast,160,2013-01-11 09:13:00
3:36 AM,52.0,52.0,100,29.72,2.5,South,11.5,-,0.02,Rain,Light Rain,190,2013-01-11 09:36:00
3:54 AM,53.1,52.0,96,29.73,3.0,SSW,15.0,-,0.03,Rain,Light Rain,200,2013-01-11 09:54:00
4:11 AM,53.1,51.1,93,29.71,6.0,SW,16.1,-,0.02,Rain,Light Rain,230,2013-01-11 10:11:00
4:42 AM,51.1,50.0,96,29.72,10.0,WSW,10.4,-,0.02,,Mostly Cloudy,250,2013-01-11 10:42:00
4:54 AM,51.1,48.9,92,29.73,10.0,WSW,12.7,-,0.02,,Mostly Cloudy,250,2013-01-11 10:54:00
5:21 AM,50.0,48.0,93,29.74,10.0,WSW,15.0,-,N/A,,Mostly Cloudy,250,2013-01-11 11:21:00
5:32 AM,50.0,46.4,87,29.73,10.0,WSW,12.7,24.2,N/A,,Overcast,240,2013-01-11 11:32:00
5:54 AM,48.9,46.9,93,29.76,10.0,WSW,9.2,-,N/A,,Overcast,240,2013-01-11 11:54:00
6:54 AM,48.2,46.4,93,29.77,7.0,WSW,9.2,-,N/A,,Overcast,240,2013-01-11 12:54:00
7:54 AM,48.0,46.0,93,29.81,5.0,SW,9.2,-,N/A,,Overcast,220,2013-01-11 13:54:00
8:46 AM,46.9,46.0,97,29.81,2.5,SW,12.7,-,N/A,,Overcast,220,2013-01-11 14:46:00
8:54 AM,46.9,46.0,97,29.82,1.8,SW,12.7,-,N/A,,Overcast,220,2013-01-11 14:54:00
9:20 AM,48.0,46.0,93,29.82,2.5,SW,12.7,-,N/A,,Overcast,230,2013-01-11 15:20:00
9:47 AM,48.0,46.0,93,29.82,4.0,SW,11.5,-,N/A,,Overcast,220,2013-01-11 15:47:00
9:54 AM,48.0,46.9,96,29.83,4.0,SW,9.2,-,N/A,,Overcast,220,2013-01-11 15:54:00
10:54 AM,48.9,46.9,93,29.81,6.0,SSW,12.7,-,N/A,,Overcast,200,2013-01-11 16:54:00
11:54 AM,50.0,48.2,94,29.77,10.0,SSW,13.8,-,N/A,,Overcast,200,2013-01-11 17:54:00
12:29 PM,51.1,48.0,89,29.75,10.0,South,10.4,20.7,N/A,,Overcast,190,2013-01-11 18:29:00
12:54 PM,52.0,48.0,86,29.76,10.0,South,12.7,-,N/A,,Overcast,190,2013-01-11 18:54:00
1:54 PM,55.0,48.9,80,29.72,10.0,South,15.0,-,N/A,,Scattered Clouds,170,2013-01-11 19:54:00
2:54 PM,55.9,48.9,77,29.73,10.0,South,23.0,28.8,N/A,,Partly Cloudy,190,2013-01-11 20:54:00
3:54 PM,55.0,48.0,77,29.72,10.0,South,21.9,27.6,N/A,,Clear,180,2013-01-11 21:54:00
4:54 PM,53.1,48.0,83,29.71,10.0,South,17.3,-,N/A,,Clear,180,2013-01-11 22:54:00
5:54 PM,53.1,48.0,83,29.72,10.0,South,17.3,-,N/A,,Clear,180,2013-01-11 23:54:00
6:54 PM,53.1,46.9,80,29.72,10.0,South,18.4,-,N/A,,Clear,190,2013-01-12 00:54:00
7:54 PM,52.0,46.9,83,29.72,10.0,South,18.4,-,N/A,,Clear,180,2013-01-12 01:54:00
8:54 PM,52.0,46.9,83,29.71,10.0,South,16.1,-,N/A,,Clear,190,2013-01-12 02:54:00
9:54 PM,52.0,46.9,83,29.73,10.0,South,15.0,-,N/A,,Clear,190,2013-01-12 03:54:00
10:54 PM,52.0,46.9,83,29.73,10.0,SSW,18.4,28.8,N/A,,Clear,200,2013-01-12 04:54:00
11:54 PM,52.0,46.0,80,29.74,10.0,SSW,15.0,24.2,N/A,,Clear,200,2013-01-12 05:54:00